QPF
0.02 0.02 0.03 0.04 0.04 0.05 0.07 0.09 0.11 0.11 0.11 0.13 0.12 0.10 0.08 0.07 0.05 0.03 0.04 0.03 0.01 0.01 0.00 0.00 0.00 0.00 0.00 0.00 0.00 0.02 0.05 0.08 0.11 0.12 0.12 0.12 0.11 0.09
0.03 0.04 0.05 0.05 0.05 0.05 0.06 0.08 0.11 0.12 0.10 0.10 0.10 0.08 0.07 0.05 0.04 0.04 0.05 0.04 0.02 0.01 0.01 0.00 0.00 0.00 0.00 0.01 0.01 0.02 0.05 0.08 0.10 0.13 0.14 0.13 0.11 0.09
0.02 0.03 0.04 0.04 0.05 0.04 0.05 0.06 0.08 0.09 0.10 0.11 0.12 0.11 0.12 0.12 0.10 0.08 0.06 0.05 0.05 0.03 0.02 0.01 0.01 0.01 0.01 0.02 0.03 0.04 0.07 0.09 0.11 0.12 0.13 0.12 0.09 0.07
0.01 0.02 0.02 0.02 0.02 0.02 0.02 0.03 0.05 0.07 0.08 0.10 0.12 0.14 0.15 0.14 0.13 0.12 0.11 0.10 0.08 0.06 0.04 0.03 0.03 0.03 0.03 0.05 0.07 0.10 0.11 0.11 0.12 0.12 0.11 0.11 0.08 0.05
0.01 0.01 0.00 0.00 0.01 0.01 0.02 0.02 0.03 0.05 0.09 0.12 0.14 0.17 0.17 0.16 0.15 0.14 0.14 0.15 0.13 0.11 0.08 0.05 0.04 0.04 0.05 0.07 0.11 0.17 0.17 0.14 0.13 0.11 0.10 0.09 0.08 0.05
0.00 0.00 0.00 0.00 0.00 0.00 0.01 0.01 0.02 0.04 0.07 0.10 0.12 0.14 0.15 0.16 0.15 0.17 0.19 0.20 0.17 0.15 0.12 0.08 0.07 0.05 0.06 0.07 0.10 0.18 0.23 0.20 0.16 0.13 0.09 0.07 0.06 0.05
0.00 0.00 0.00 0.00 0.00 0.00 0.00 0.00 0.01 0.02 0.03 0.04 0.05 0.05 0.06 0.07 0.09 0.14 0.19 0.23 0.22 0.20 0.19 0.15 0.10 0.06 0.05 0.05 0.08 0.14 0.23 0.24 0.17 0.11 0.07 0.04 0.03 0.02
0.00 0.00 0.00 0.00 0.00 0.00 0.00 0.00 0.00 0.00 0.01 0.01 0.01 0.01 0.02 0.03 0.05 0.10 0.16 0.20 0.28 0.31 0.31 0.27 0.19 0.12 0.09 0.07 0.05 0.07 0.11 0.14 0.11 0.06 0.03 0.02 0.02 0.01
0.00 0.00 0.00 0.00 0.00 0.00 0.00 0.00 0.00 0.00 0.00 0.00 0.00 0.00 0.00 0.01 0.03 0.06 0.12 0.19 0.28 0.38 0.47 0.51 0.42 0.28 0.17 0.11 0.07 0.03 0.03 0.05 0.04 0.03 0.02 0.01 0.01 0.00
0.00 0.00 0.00 0.00 0.00 0.00 0.00 0.00 0.00 0.00 0.00 0.00 0.00 0.00 0.00 0.01 0.02 0.04 0.07 0.14 0.23 0.33 0.44 0.56 0.54 0.44 0.31 0.20 0.12 0.05 0.03 0.02 0.01 0.01 0.01 0.00 0.01 0.01
0.00 0.00 0.00 0.00 0.00 0.00 0.00 0.00 0.00 0.00 0.00 0.00 0.00 0.00 0.00 0.00 0.01 0.01 0.03 0.06 0.12 0.22 0.37 0.56 0.62 0.51 0.44 0.37 0.25 0.16 0.09 0.06 0.04 0.02 0.02 0.01 0.01 0.01
0.00 0.00 0.00 0.00 0.00 0.00 0.00 0.00 0.00 0.00 0.00 0.00 0.00 0.00 0.00 0.00 0.00 0.01 0.01 0.03 0.06 0.10 0.20 0.37 0.52 0.47 0.46 0.46 0.43 0.32 0.21 0.15 0.10 0.07 0.06 0.05 0.04 0.02
0.00 0.00 0.00 0.00 0.00 0.00 0.00 0.00 0.00 0.00 0.00 0.00 0.00 0.00 0.00 0.00 0.00 0.00 0.01 0.03 0.05 0.08 0.09 0.13 0.23 0.28 0.31 0.36 0.37 0.38 0.36 0.29 0.19 0.13 0.11 0.08 0.06 0.03
0.00 0.00 0.00 0.00 0.00 0.00 0.00 0.00 0.00 0.00 0.00 0.00 0.00 0.00 0.00 0.00 0.00 0.00 0.00 0.01 0.03 0.04 0.04 0.05 0.11 0.16 0.17 0.19 0.24 0.26 0.28 0.31 0.30 0.26 0.22 0.17 0.11 0.07
0.00 0.00 0.00 0.00 0.00 0.00 0.00 0.00 0.00 0.00 0.00 0.00 0.00 0.00 0.00 0.00 0.00 0.00 0.00 0.00 0.01 0.01 0.01 0.02 0.04 0.08 0.11 0.13 0.14 0.15 0.19 0.23 0.26 0.29 0.30 0.27 0.21 0.15
0.00 0.00 0.00 0.00 0.00 0.00 0.00 0.00 0.00 0.00 0.00 0.00 0.00 0.00 0.00 0.00 0.00 0.00 0.00 0.00 0.01 0.01 0.01 0.01 0.02 0.04 0.07 0.09 0.11 0.13 0.16 0.19 0.19 0.20 0.23 0.24 0.21 0.18
0.00 0.00 0.00 0.00 0.00 0.00 0.00 0.00 0.00 0.00 0.00 0.00 0.00 0.00 0.00 0.00 0.00 0.00 0.00 0.00 0.00 0.01 0.01 0.01 0.02 0.03 0.04 0.05 0.10 0.11 0.10 0.11 0.13 0.14 0.14 0.14 0.13 0.12
0.00 0.00 0.00 0.00 0.00 0.00 0.00 0.00 0.00 0.00 0.00 0.00 0.00 0.00 0.00 0.00 0.00 0.00 0.00 0.00 0.00 0.00 0.00 0.01 0.02 0.05 0.07 0.06 0.04 0.06 0.08 0.08 0.09 0.10 0.10 0.09 0.08 0.06
0.00 0.00 0.00 0.00 0.00 0.00 0.00 0.00 0.00 0.00 0.00 0.00 0.00 0.00 0.00 0.00 0.00 0.00 0.00 0.00 0.00 0.00 0.00 0.00 0.00 0.02 0.04 0.08 0.08 0.03 0.03 0.05 0.06 0.09 0.10 0.09 0.08 0.06
0.00 0.00 0.00 0.00 0.00 0.00 0.00 0.00 0.00 0.00 0.00 0.00 0.00 0.00 0.00 0.00 0.00 0.00 0.00 0.00 0.00 0.00 0.00 0.00 0.00 0.01 0.02 0.03 0.06 0.08 0.03 0.03 0.04 0.06 0.07 0.07 0.07 0.05
0.00 0.00 0.00 0.00 0.00 0.00 0.00 0.00 0.00 0.00 0.00 0.00 0.00 0.00 0.00 0.00 0.00 0.00 0.00 0.00 0.00 0.00 0.00 0.00 0.00 0.00 0.01 0.04 0.08 0.11 0.10 0.04 0.03 0.04 0.05 0.06 0.08 0.09
0.00 0.00 0.00 0.00 0.00 0.00 0.00 0.00 0.00 0.00 0.00 0.00 0.00 0.00 0.00 0.00 0.00 0.00 0.00 0.00 0.00 0.00 0.00 0.00 0.00 0.00 0.01 0.03 0.05 0.08 0.09 0.10 0.08 0.05 0.04 0.04 0.05 0.07
0.00 0.00 0.00 0.00 0.00 0.00 0.00 0.00 0.00 0.00 0.00 0.00 0.00 0.00 0.00 0.00 0.00 0.00 0.00 0.00 0.00 0.00 0.00 0.00 0.00 0.00 0.00 0.01 0.02 0.04 0.06 0.08 0.11 0.13 0.13 0.08 0.04 0.02
MSLP
1011.65 1011.59 1011.48 1011.33 1011.13 1010.87 1010.57 1010.23 1009.88 1009.53 1009.19 1008.88 1008.61 1008.39 1008.23 1008.13 1008.09 1008.10 1008.15 1008.22 1008.28 1008.32 1008.31 1008.23 1008.08 1007.88 1007.66 1007.45 1007.31 1007.28 1007.42 1007.74 1008.27 1008.98 1009.85 1010.84 1011.89 1012.95
1011.54 1011.44 1011.30 1011.13 1010.92 1010.68 1010.40 1010.10 1009.79 1009.48 1009.18 1008.89 1008.64 1008.42 1008.25 1008.12 1008.05 1008.01 1008.01 1008.03 1008.04 1008.02 1007.95 1007.81 1007.62 1007.37 1007.11 1006.88 1006.72 1006.69 1006.82 1007.15 1007.69 1008.42 1009.32 1010.33 1011.40 1012.48
1011.49 1011.35 1011.18 1010.98 1010.76 1010.51 1010.26 1009.99 1009.73 1009.46 1009.20 1008.96 1008.73 1008.52 1008.34 1008.19 1008.08 1008.00 1007.95 1007.90 1007.85 1007.77 1007.64 1007.47 1007.24 1006.98 1006.71 1006.47 1006.33 1006.31 1006.47 1006.83 1007.38 1008.12 1009.03 1010.04 1011.10 1012.16
1011.58 1011.40 1011.20 1010.97 1010.73 1010.48 1010.25 1010.02 1009.79 1009.57 1009.36 1009.15 1008.94 1008.74 1008.55 1008.38 1008.22 1008.09 1007.97 1007.86 1007.75 1007.61 1007.45 1007.25 1007.01 1006.75 1006.51 1006.31 1006.21 1006.23 1006.43 1006.81 1007.38 1008.13 1009.02 1010.01 1011.03 1012.05
1011.83 1011.63 1011.39 1011.15 1010.90 1010.67 1010.44 1010.24 1010.05 1009.87 1009.69 1009.50 1009.31 1009.10 1008.89 1008.68 1008.48 1008.29 1008.11 1007.94 1007.77 1007.59 1007.40 1007.19 1006.97 1006.75 1006.55 1006.42 1006.38 1006.46 1006.71 1007.12 1007.70 1008.44 1009.29 1010.23 1011.20 1012.14
1012.21 1012.01 1011.78 1011.53 1011.29 1011.06 1010.86 1010.67 1010.50 1010.34 1010.18 1010.00 1009.80 1009.57 1009.33 1009.08 1008.83 1008.58 1008.34 1008.11 1007.90 1007.70 1007.51 1007.31 1007.13 1006.96 1006.84 1006.78 1006.81 1006.96 1007.25 1007.69 1008.27 1008.98 1009.78 1010.65 1011.53 1012.38
1012.70 1012.51 1012.29 1012.06 1011.84 1011.63 1011.43 1011.26 1011.10 1010.94 1010.77 1010.57 1010.35 1010.09 1009.81 1009.51 1009.21 1008.91 1008.63 1008.37 1008.13 1007.93 1007.74 1007.59 1007.46 1007.36 1007.31 1007.33 1007.44 1007.65 1007.97 1008.42 1008.98 1009.64 1010.37 1011.14 1011.92 1012.67
1013.19 1013.04 1012.86 1012.66 1012.46 1012.26 1012.08 1011.91 1011.74 1011.56 1011.37 1011.14 1010.88 1010.59 1010.26 1009.92 1009.57 1009.24 1008.93 1008.65 1008.41 1008.22 1008.07 1007.96 1007.89 1007.86 1007.89 1007.98 1008.14 1008.39 1008.73 1009.16 1009.68 1010.28 1010.92 1011.58 1012.25 1012.88
1013.63 1013.52 1013.38 1013.22 1013.05 1012.87 1012.70 1012.52 1012.34 1012.13 1011.90 1011.63 1011.33 1010.99 1010.62 1010.25 1009.87 1009.52 1009.20 1008.93 1008.71 1008.54 1008.43 1008.37 1008.36 1008.39 1008.47 1008.61 1008.81 1009.07 1009.40 1009.79 1010.25 1010.75 1011.29 1011.84 1012.38 1012.90
1013.96 1013.89 1013.79 1013.67 1013.53 1013.37 1013.20 1013.02 1012.81 1012.58 1012.31 1012.00 1011.65 1011.27 1010.88 1010.48 1010.09 1009.74 1009.43 1009.17 1008.98 1008.85 1008.78 1008.76 1008.79 1008.87 1008.98 1009.14 1009.34 1009.58 1009.87 1010.20 1010.57 1010.97 1011.39 1011.82 1012.24 1012.64
1014.17 1014.13 1014.07 1013.98 1013.86 1013.73 1013.56 1013.37 1013.15 1012.89 1012.59 1012.24 1011.87 1011.46 1011.05 1010.64 1010.26 1009.91 1009.62 1009.39 1009.23 1009.13 1009.09 1009.10 1009.16 1009.25 1009.36 1009.51 1009.68 1009.87 1010.10 1010.35 1010.62 1010.91 1011.22 1011.52 1011.83 1012.12
1014.29 1014.27 1014.23 1014.16 1014.07 1013.95 1013.79 1013.61 1013.38 1013.10 1012.78 1012.42 1012.03 1011.62 1011.20 1010.80 1010.42 1010.09 1009.82 1009.61 1009.47 1009.39 1009.36 1009.38 1009.43 1009.51 1009.60 1009.71 1009.82 1009.95 1010.10 1010.26 1010.43 1010.62 1010.81 1011.01 1011.21 1011.41
1014.36 1014.35 1014.32 1014.26 1014.19 1014.08 1013.95 1013.77 1013.55 1013.28 1012.96 1012.60 1012.21 1011.81 1011.40 1011.00 1010.64 1010.32 1010.06 1009.86 1009.72 1009.64 1009.60 1009.60 1009.62 1009.66 1009.71 1009.76 1009.81 1009.87 1009.94 1010.01 1010.09 1010.18 1010.29 1010.40 1010.51 1010.64
1014.45 1014.42 1014.39 1014.34 1014.28 1014.19 1014.07 1013.91 1013.72 1013.47 1013.18 1012.84 1012.47 1012.08 1011.69 1011.31 1010.95 1010.64 1010.37 1010.16 1010.01 1009.90 1009.83 1009.79 1009.76 1009.75 1009.74 1009.72 1009.71 1009.70 1009.69 1009.69 1009.70 1009.72 1009.76 1009.80 1009.86 1009.92
1014.56 1014.52 1014.47 1014.41 1014.36 1014.29 1014.20 1014.07 1013.92 1013.71 1013.46 1013.17 1012.83 1012.47 1012.09 1011.72 1011.37 1011.04 1010.76 1010.52 1010.33 1010.17 1010.05 1009.96 1009.87 1009.80 1009.73 1009.65 1009.58 1009.51 1009.45 1009.40 1009.36 1009.34 1009.33 1009.34 1009.36 1009.39
1014.68 1014.61 1014.54 1014.48 1014.43 1014.38 1014.33 1014.25 1014.14 1013.99 1013.80 1013.56 1013.27 1012.94 1012.59 1012.22 1011.86 1011.52 1011.21 1010.92 1010.68 1010.47 1010.29 1010.12 1009.98 1009.85 1009.72 1009.60 1009.48 1009.37 1009.28 1009.20 1009.14 1009.10 1009.08 1009.07 1009.08 1009.10
1014.77 1014.67 1014.58 1014.51 1014.47 1014.44 1014.42 1014.40 1014.35 1014.27 1014.14 1013.96 1013.72 1013.44 1013.11 1012.76 1012.39 1012.03 1011.68 1011.35 1011.05 1010.78 1010.53 1010.31 1010.11 1009.92 1009.75 1009.59 1009.45 1009.32 1009.22 1009.13 1009.07 1009.03 1009.01 1009.01 1009.01 1009.03
1014.75 1014.63 1014.52 1014.45 1014.41 1014.41 1014.43 1014.46 1014.48 1014.47 1014.41 1014.30 1014.12 1013.89 1013.59 1013.26 1012.90 1012.52 1012.14 1011.77 1011.42 1011.10 1010.80 1010.52 1010.28 1010.05 1009.84 1009.66 1009.50 1009.37 1009.26 1009.18 1009.13 1009.10 1009.09 1009.10 1009.11 1009.14
1014.57 1014.43 1014.31 1014.24 1014.22 1014.25 1014.31 1014.40 1014.48 1014.54 1014.56 1014.52 1014.41 1014.23 1013.98 1013.68 1013.33 1012.95 1012.56 1012.17 1011.79 1011.43 1011.09 1010.78 1010.49 1010.24 1010.01 1009.81 1009.64 1009.50 1009.39 1009.31 1009.27 1009.24 1009.25 1009.26 1009.29 1009.32
1014.19 1014.05 1013.94 1013.88 1013.88 1013.94 1014.05 1014.19 1014.34 1014.47 1014.56 1014.59 1014.55 1014.44 1014.25 1013.99 1013.67 1013.31 1012.93 1012.54 1012.15 1011.78 1011.42 1011.09 1010.78 1010.50 1010.25 1010.03 1009.85 1009.69 1009.58 1009.50 1009.44 1009.42 1009.42 1009.43 1009.45 1009.48
1013.62 1013.50 1013.41 1013.37 1013.40 1013.50 1013.65 1013.85 1014.06 1014.25 1014.42 1014.52 1014.56 1014.51 1014.38 1014.18 1013.92 1013.61 1013.26 1012.90 1012.53 1012.16 1011.80 1011.45 1011.13 1010.83 1010.56 1010.32 1010.11 1009.94 1009.80 1009.70 1009.62 1009.58 1009.56 1009.56 1009.56 1009.57
1012.90 1012.81 1012.75 1012.75 1012.83 1012.97 1013.17 1013.42 1013.68 1013.94 1014.17 1014.34 1014.45 1014.47 1014.42 1014.30 1014.10 1013.86 1013.57 1013.25 1012.91 1012.56 1012.21 1011.87 1011.54 1011.22 1010.93 1010.66 1010.41 1010.21 1010.03 1009.90 1009.79 1009.72 1009.67 1009.63 1009.61 1009.59
1012.07 1012.02 1012.02 1012.08 1012.21 1012.40 1012.66 1012.95 1013.27 1013.58 1013.87 1014.10 1014.27 1014.37 1014.40 1014.35 1014.23 1014.06 1013.84 1013.58 1013.30 1012.99 1012.66 1012.32 1011.99 1011.65 1011.33 1011.02 1010.74 1010.49 1010.27 1010.09 1009.95 1009.84 1009.75 1009.68 1009.62 1009.57
Thickness
5692 5693 5693 5695 5696 5696 5696 5695 5692 5693 5696 5698 5698 5699 5699 5698 5697 5698 5698 5696 5695 5696 5697 5699 5701 5704 5707 5711 5714 5717 5718 5718 5717 5713 5707 5700 5693 5687
5682 5682 5683 5687 5687 5689 5690 5689 5687 5684 5684 5687 5687 5688 5688 5689 5689 5689 5689 5687 5687 5687 5688 5690 5693 5697 5701 5705 5709 5712 5713 5714 5712 5708 5702 5695 5688 5682
5674 5674 5673 5675 5677 5680 5681 5681 5680 5678 5676 5680 5680 5680 5678 5679 5680 5680 5680 5679 5680 5678 5679 5682 5685 5689 5693 5697 5702 5705 5707 5707 5705 5701 5695 5689 5683 5677
5663 5663 5663 5666 5666 5668 5669 5670 5671 5669 5668 5667 5669 5670 5669 5669 5670 5670 5670 5670 5670 5670 5670 5672 5675 5679 5683 5688 5692 5696 5698 5699 5697 5693 5688 5682 5676 5671
5652 5652 5652 5654 5654 5657 5657 5660 5662 5663 5661 5660 5660 5660 5660 5661 5661 5661 5662 5661 5662 5661 5661 5662 5665 5668 5672 5677 5681 5685 5688 5688 5687 5684 5679 5673 5668 5664
5640 5640 5641 5641 5642 5644 5647 5648 5650 5651 5651 5651 5650 5651 5651 5652 5652 5652 5653 5653 5653 5654 5653 5654 5655 5657 5661 5664 5669 5672 5675 5675 5674 5671 5668 5663 5659 5656
5629 5629 5627 5625 5624 5627 5632 5633 5637 5639 5641 5640 5639 5640 5639 5639 5641 5643 5644 5645 5645 5644 5645 5646 5648 5650 5652 5653 5656 5658 5660 5661 5660 5658 5655 5652 5649 5647
5619 5620 5619 5617 5614 5613 5613 5614 5616 5621 5623 5625 5626 5625 5624 5627 5630 5632 5634 5633 5632 5634 5635 5636 5639 5641 5643 5644 5644 5645 5646 5646 5646 5644 5642 5640 5638 5637
5610 5610 5612 5608 5608 5609 5606 5605 5605 5604 5604 5609 5609 5608 5612 5614 5618 5622 5622 5621 5621 5624 5626 5626 5628 5630 5634 5633 5633 5633 5633 5633 5632 5631 5630 5630 5629 5629
5601 5600 5599 5598 5596 5596 5600 5599 5598 5595 5595 5597 5596 5595 5598 5601 5607 5612 5613 5614 5614 5615 5617 5616 5618 5620 5623 5624 5623 5623 5623 5623 5622 5622 5621 5622 5622 5622
5592 5590 5591 5589 5583 5585 5591 5589 5588 5588 5585 5583 5582 5584 5586 5589 5593 5603 5605 5608 5606 5606 5607 5607 5608 5610 5612 5613 5614 5614 5615 5615 5615 5615 5615 5616 5616 5616
5587 5585 5577 5577 5574 5576 5581 5580 5578 5577 5578 5580 5577 5578 5580 5582 5584 5586 5591 5595 5596 5597 5597 5599 5600 5602 5602 5604 5606 5607 5608 5610 5610 5610 5611 5612 5612 5613
5587 5584 5574 5567 5567 5568 5569 5568 5564 5564 5570 5571 5570 5569 5570 5571 5573 5574 5575 5579 5582 5584 5587 5590 5591 5593 5595 5597 5599 5601 5603 5605 5606 5607 5608 5609 5609 5611
5579 5577 5567 5561 5560 5559 5560 5555 5555 5557 5562 5560 5558 5557 5556 5557 5558 5561 5562 5565 5568 5571 5574 5578 5581 5584 5586 5589 5591 5594 5597 5599 5601 5603 5605 5605 5605 5607
5569 5560 5558 5556 5553 5554 5549 5549 5551 5552 5550 5548 5546 5545 5544 5544 5546 5549 5553 5555 5560 5562 5564 5566 5570 5574 5578 5581 5583 5587 5589 5591 5594 5596 5599 5599 5601 5603
5564 5556 5552 5551 5550 5546 5546 5547 5545 5539 5537 5536 5535 5534 5534 5535 5536 5537 5540 5543 5548 5551 5553 5555 5559 5562 5568 5571 5574 5577 5580 5583 5585 5587 5589 5591 5593 5595
5561 5560 5559 5556 5554 5550 5546 5541 5538 5534 5531 5528 5526 5525 5524 5524 5525 5526 5526 5530 5533 5535 5539 5542 5547 5551 5555 5558 5562 5565 5568 5572 5575 5577 5579 5580 5582 5584
5555 5559 5556 5553 5550 5545 5541 5537 5532 5527 5523 5521 5518 5515 5514 5514 5514 5515 5516 5517 5519 5521 5524 5527 5532 5538 5543 5546 5543 5552 5555 5558 5562 5564 5567 5570 5572 5574
5553 5555 5552 5549 5545 5540 5536 5532 5527 5520 5515 5514 5510 5507 5505 5504 5504 5505 5505 5505 5507 5508 5511 5513 5515 5518 5524 5529 5533 5532 5538 5544 5548 5552 5555 5558 5562 5564
5554 5553 5549 5545 5541 5536 5532 5527 5522 5517 5512 5507 5503 5499 5497 5496 5495 5494 5495 5491 5494 5497 5499 5501 5500 5501 5505 5511 5516 5521 5521 5528 5533 5538 5543 5547 5551 5552
5553 5551 5547 5543 5538 5533 5528 5523 5518 5512 5505 5501 5498 5492 5490 5488 5487 5485 5486 5482 5483 5487 5487 5489 5487 5487 5494 5500 5504 5507 5509 5510 5514 5519 5525 5532 5538 5542
5552 5549 5545 5541 5537 5532 5525 5520 5516 5509 5503 5499 5493 5488 5484 5481 5479 5477 5476 5476 5475 5476 5476 5478 5479 5481 5485 5488 5490 5494 5497 5499 5501 5503 5507 5512 5519 5525
5550 5547 5545 5541 5536 5530 5525 5518 5512 5507 5500 5494 5489 5483 5478 5474 5471 5469 5467 5466 5465 5465 5466 5467 5469 5470 5473 5475 5479 5482 5485 5488 5492 5495 5498 5500 5503 5507